星链-37571(STARLINK-37571)

导读

STARLINK-37571(NORAD编号69043)是SpaceX星链互联网星座中的一颗低轨通信卫星,隶属于SpaceX主导的星链项目,该项目旨在构建覆盖全球的低成本空间互联网通信系统。 作为星链组网卫星,它运行在近地轨道,采用星链标准卫星总线设计,支持Ku/Ka频段通信,部分新一代星链卫星配备激光星间链路,可实现高速星际数据传输,助力全球无死角互联网覆盖,为地面用户提供低延迟宽带服务,支撑星链星座的持续扩展与服务能力升级。

Basic Information
目录编号:
69043
目录名称:
STARLINK-37571
国际标识:
2026-101U
轨道中心:
EARTH
卫星名称:
星链-37571
卫星全名:
星链-37571(STARLINK-37571)
卫星状态:
在轨 (已飞行83 天)
发射日期:
2026-05-06 UTC
国别 :
美国 (US)
星等 :
--
Orbit Information
数据来源 国际轨道数据 AOE轨道数据
星历时间 2026-07-27T11:10:58+0800
21小时前
查看轨道信息
2026-07-21T23:00:00+0800
6天前
查看轨道信息
半长轴 6843.675km 6843.731km
偏心率 0.0001912 0.0001842
轨道倾角 97.286° 97.286°
近地点辐角 89.785° 95.975°
升交点赤经 62.401° 56.972°
平近点角 270.361° 119.725°
近地点 464.229km 464.333km
远地点 466.847km 466.855km
周期 93.906分钟 93.907分钟
每日圈数 15.334469 15.33428
Detailed Information
固有亮度:
5
最大亮度:
2.5
卫星平台:
Starlink V1.0
覆盖范围:
全球
运营商:
太空探索技术公司
运营商所在国:
美国
制造商(研发单位):
太空探索技术公司
制造商所在国:
美国
使用方式:
暂无
Satellite Introduction
Starlink 计划是 SpaceX 推出的全球卫星互联网项目,通过发射低轨道卫星,为全球尤其是偏远地区提供高速、低延迟的互联网服务。自 2019 年起,Starlink 已部署数千颗卫星,旨在缩小全球数字鸿沟,推动互联网普及。该项目还为军事、航空等行业提供通信支持,带来广泛经济效益。
2D Orbit Map
3D Orbit Map
Orbit Altitude Analysis Chart
Orbit Inclination Analysis Chart
Orbit Comprehensive Analysis Chart
View Comprehensive Chart